This is the latest recevied weather packets stored in our database for station/object K3RUP-1. If no packets are shown the sender has not sent any weather packets the latest 10 day(s).
| Time | Temp. | Humidity | Pressure | Rain* | Wind** | Luminosity | Snow |
|---|---|---|---|---|---|---|---|
| 1777493891 | 14.44° C | 95% | 1008.7 hPa | 1.78 mm | - | 95 W/m² | - |
| 1777493589 | 14.44° C | 94% | 1008.9 hPa | 1.78 mm | - | 76 W/m² | - |
| 1777493287 | 14.44° C | 94% | 1009 hPa | 3.05 mm | - | 62 W/m² | - |
| 1777492983 | 15° C | 93% | 1009.1 hPa | 4.32 mm | - | 53 W/m² | - |
| 1777492680 | 15° C | 91% | 1009.3 hPa | 1.27 mm | - | 34 W/m² | - |
| 1777492379 | 15° C | 91% | 1009.5 hPa | 0 mm | - | 45 W/m² | - |
| 1777492077 | 15° C | 90% | 1009.5 hPa | 0 mm | - | 47 W/m² | - |
| 1777491774 | 15° C | 89% | 1009.6 hPa | 1.78 mm | - | 40 W/m² | - |
| 1777491470 | 15.56° C | 87% | 1009.7 hPa | 1.78 mm | - | 39 W/m² | - |
| 1777491167 | 15.56° C | 85% | 1009.4 hPa | 0 mm | - | 73 W/m² | - |
| 1777490863 | 16.67° C | 80% | 1009.6 hPa | 0 mm | - | 73 W/m² | - |
| 1777490559 | 16.67° C | 77% | 1009.6 hPa | 0 mm | - | 83 W/m² | - |
| 1777490256 | 16.67° C | 75% | 1009.9 hPa | 0 mm | - | 85 W/m² | - |
| 1777489954 | 16.67° C | 74% | 1010.2 hPa | 0 mm | - | 85 W/m² | - |
| 1777489652 | 16.67° C | 73% | 1010.2 hPa | 0 mm | - | 127 W/m² | - |
| 1777489347 | 16.67° C | 73% | 1010.6 hPa | 0 mm | - | 145 W/m² | - |
| 1777489045 | 16.11° C | 74% | 1010.4 hPa | 0 mm | - | 129 W/m² | - |
| 1777488741 | 16.11° C | 74% | 1010.6 hPa | 0 mm | - | 90 W/m² | - |
| 1777488439 | 16.11° C | 75% | 1010.9 hPa | 0 mm | - | 81 W/m² | - |
| 1777488137 | 16.11° C | 75% | 1010.9 hPa | 0 mm | - | 86 W/m² | - |
| 1777487835 | 16.67° C | 74% | 1011.3 hPa | 0 mm | - | 72 W/m² | - |
| 1777487533 | 16.67° C | 73% | 1011.5 hPa | 0 mm | - | 69 W/m² | - |
| 1777487230 | 16.67° C | 72% | 1011.4 hPa | 0 mm | - | 71 W/m² | - |
| 1777486926 | 16.67° C | 70% | 1011.4 hPa | 0 mm | - | 69 W/m² | - |
| 1777486623 | 17.22° C | 71% | 1011.3 hPa | 0 mm | - | 108 W/m² | - |
* Rain latest hour (hover to see other rain measurements)
** Current wind speed in m/s (hover to see current wind gust speed)